TimePST,TemperatureF,Dew PointF,Humidity,Sea Level PressureIn,VisibilityMPH,Wind Direction,Wind SpeedMPH,Gust SpeedMPH,PrecipitationIn,Events,Conditions,WindDirDegrees,DateUTC
12:53 AM,32.0,28.9,88,30.24,4.0,Calm,Calm,-,N/A,,Clear,0,2013-12-12 08:53:00
1:53 AM,30.0,28.0,92,30.25,4.0,ESE,3.5,-,N/A,,Clear,120,2013-12-12 09:53:00
2:53 AM,30.0,28.0,92,30.25,3.0,Calm,Calm,-,N/A,,Clear,0,2013-12-12 10:53:00
3:53 AM,33.1,28.0,82,30.24,3.0,Calm,Calm,-,N/A,,Haze,0,2013-12-12 11:53:00
4:53 AM,39.0,27.0,62,30.24,5.0,Calm,Calm,-,N/A,,Haze,0,2013-12-12 12:53:00
5:53 AM,39.0,27.0,62,30.25,4.0,NNW,3.5,-,N/A,,Haze,330,2013-12-12 13:53:00
6:53 AM,34.0,28.0,79,30.25,4.0,Calm,Calm,-,N/A,,Haze,0,2013-12-12 14:53:00
7:53 AM,35.1,28.9,78,30.27,4.0,Calm,Calm,-,N/A,,Haze,0,2013-12-12 15:53:00
8:00 AM,35.6,28.4,75,30.26,4.0,Calm,Calm,-,N/A,,Haze,0,2013-12-12 16:00:00
8:53 AM,46.9,32.0,56,30.27,4.0,Calm,Calm,-,N/A,,Haze,0,2013-12-12 16:53:00
9:53 AM,64.0,32.0,30,30.28,4.0,Calm,Calm,-,N/A,,Haze,0,2013-12-12 17:53:00
10:53 AM,69.1,32.0,25,30.28,5.0,WNW,4.6,-,N/A,,Haze,290,2013-12-12 18:53:00
11:53 AM,-9999,-9999,N/A,30.25,4.0,Variable,3.5,-,N/A,,Haze,0,2013-12-12 19:53:00
12:53 PM,-9999,-9999,N/A,30.21,5.0,Calm,Calm,-,N/A,,Haze,0,2013-12-12 20:53:00
1:53 PM,55.0,32.0,42,30.19,6.0,Calm,Calm,-,N/A,,Haze,0,2013-12-12 21:53:00
2:53 PM,57.0,30.9,37,30.19,6.0,WNW,3.5,-,N/A,,Haze,300,2013-12-12 22:53:00
3:53 PM,57.0,32.0,39,30.18,6.0,Calm,Calm,-,N/A,,Haze,0,2013-12-12 23:53:00
4:53 PM,48.9,33.1,54,30.19,6.0,Calm,Calm,-,N/A,,Haze,0,2013-12-13 00:53:00
5:53 PM,44.1,33.1,65,30.19,7.0,Calm,Calm,-,N/A,,Clear,0,2013-12-13 01:53:00
6:53 PM,42.1,33.1,70,30.22,6.0,Calm,Calm,-,N/A,,Haze,0,2013-12-13 02:53:00
7:53 PM,39.0,32.0,76,30.22,5.0,Calm,Calm,-,N/A,,Haze,0,2013-12-13 03:53:00
8:53 PM,39.9,32.0,73,30.24,4.0,Calm,Calm,-,N/A,,Haze,0,2013-12-13 04:53:00
9:53 PM,35.1,30.9,85,30.23,4.0,ESE,3.5,-,N/A,,Clear,110,2013-12-13 05:53:00
10:53 PM,36.0,30.9,82,30.25,5.0,Calm,Calm,-,N/A,,Haze,0,2013-12-13 06:53:00
11:53 PM,33.1,30.0,89,30.23,4.0,Calm,Calm,-,N/A,,Clear,0,2013-12-13 07:53:00